Weather History for Bentonville, AR

Change the Weather History Date:

Monday, October 8, 2012

  Actual Average Record
Temperature  
Mean Temperature - -  
Max Temperature - 71 °F 90 °F (1979)
Min Temperature - 46 °F 26 °F (1952)
Moisture  
Dew Point -    
Average Humidity    
Maximum Humidity    
Minimum Humidity    
Precipitation  
Precipitation 0.00 in - - ()
Sea Level Pressure  
Sea Level Pressure 30.14 in    
Wind  
Wind Speed 4 mph (SSW)    
Max Wind Speed 12 mph    
Max Gust Speed 22 mph    
Visibility 9 miles    
Events      
Averages and records for this station are not official NWS values.
T = Trace of Precipitation, MM = Missing Value Source: NWS Daily Summary

Daily Weather History Graph

Daily Weather History Graph

Search for Another Location

Airport:

Trip Planner

Search our weather history database for the weather conditions in past years. The results will help you decide how hot, cold, wet, or windy it might be!

Date:

Astronomy

Oct. 08, 2012 Rise Set
Actual Time 7:18 AM CDT 6:49 PM CDT
Civil Twilight 6:52 AM CDT 7:15 PM CDT
Nautical Twilight 6:22 AM CDT 7:45 PM CDT
Astronomical Twilight 5:52 AM CDT 8:14 PM CDT
Moon 12:09 AM CDT (10/8) 2:29 PM CDT (10/8)
Length of Visible Light 12h 22m
Length of Day
11h 31m
Last Quarter, 46% of the Moon is Illuminated
Oct 8
Last Quarter
Oct 15
New
Oct 21
First Quarter
Oct 29
Full
Nov 6
Last Quarter

Hourly Weather History & Observations

Time (CDT) Temp. Dew Point Humidity Pressure Visibility Wind Dir Wind Speed Gust Speed Precip Events Conditions
12:15 AM - - N/A% 30.20 in 10.0 mi WSW 4.6 mph - N/A   Clear
12:35 AM - - N/A% 30.20 in 10.0 mi WSW 3.5 mph - N/A   Clear
12:55 AM - - N/A% 30.20 in 10.0 mi SW 4.6 mph - N/A   Clear
1:15 AM - - N/A% 30.20 in 10.0 mi SSW 3.5 mph - N/A   Clear
1:35 AM - - N/A% 30.20 in 10.0 mi SSW 3.5 mph - N/A   Clear
1:55 AM - - N/A% 30.20 in 10.0 mi SSW 3.5 mph - N/A   Clear
2:16 AM - - N/A% 30.21 in 10.0 mi Calm Calm - N/A   Clear
2:35 AM - - N/A% 30.20 in 10.0 mi Calm Calm - N/A   Clear
2:55 AM - - N/A% 30.20 in 10.0 mi Calm Calm - N/A   Clear
3:15 AM - - N/A% 30.19 in 10.0 mi Calm Calm - N/A   Clear
3:35 AM - - N/A% 30.19 in 10.0 mi Calm Calm - N/A   Clear
3:55 AM - - N/A% 30.19 in 8.0 mi Calm Calm - N/A   Clear
4:15 AM - - N/A% 30.18 in 8.0 mi Calm Calm - N/A   Clear
4:36 AM - - N/A% 30.18 in 5.0 mi Calm Calm - N/A   Clear
4:55 AM - - N/A% 30.18 in 10.0 mi Calm Calm - N/A   Clear
5:15 AM - - N/A% 30.18 in 3.0 mi Calm Calm - N/A   Clear
5:35 AM - - N/A% 30.19 in 3.0 mi SSE 4.6 mph - N/A   Clear
5:55 AM - - N/A% 30.18 in 7.0 mi SSE 4.6 mph - N/A   Clear
6:15 AM - - N/A% 30.18 in 5.0 mi SSE 3.5 mph - N/A   Clear
6:36 AM - - N/A% 30.19 in 7.0 mi Calm Calm - N/A   Clear
6:55 AM - - N/A% 30.20 in 5.0 mi Calm Calm - N/A   Clear
7:15 AM - - N/A% 30.20 in 5.0 mi Calm Calm - N/A   Clear
7:35 AM - - N/A% 30.21 in 1.8 mi Calm Calm - N/A   Clear
7:55 AM - - N/A% 30.20 in 5.0 mi Calm Calm - N/A   Clear
8:15 AM - - N/A% 30.21 in 5.0 mi Calm Calm - N/A   Clear
8:35 AM - - N/A% 30.21 in 7.0 mi Calm Calm - N/A   Clear
8:55 AM - - N/A% 30.21 in 10.0 mi South 3.5 mph - N/A   Clear
9:15 AM - - N/A% 30.21 in 10.0 mi South 3.5 mph - N/A   Clear
9:36 AM - - N/A% 30.21 in 10.0 mi SSW 5.8 mph - N/A   Clear
9:55 AM - - N/A% 30.21 in 10.0 mi SSW 6.9 mph - N/A   Clear
10:15 AM - - N/A% 30.21 in 10.0 mi SW 8.1 mph - N/A   Clear
10:55 AM - - N/A% 30.21 in 10.0 mi SW 8.1 mph - N/A   Clear
11:15 AM - - N/A% 30.20 in 10.0 mi SSW 6.9 mph - N/A   Clear
11:35 AM - - N/A% 30.20 in 10.0 mi WSW 9.2 mph - N/A   Clear
11:55 AM - - N/A% 30.19 in 10.0 mi SSW 8.1 mph - N/A   Clear
12:15 PM - - N/A% 30.19 in 10.0 mi South 4.6 mph - N/A   Clear
12:55 PM - - N/A% 30.17 in 10.0 mi SW 8.1 mph - N/A   Clear
1:15 PM - - N/A% 30.16 in 10.0 mi South 8.1 mph - N/A   Clear
1:35 PM - - N/A% 30.15 in 10.0 mi SSW 4.6 mph - N/A   Clear
1:56 PM - - N/A% 30.13 in 10.0 mi West 6.9 mph - N/A   Clear
2:15 PM - - N/A% 30.13 in 10.0 mi SSW 9.2 mph - N/A   Clear
2:35 PM - - N/A% 30.12 in 10.0 mi SSW 10.4 mph - N/A   Clear
2:55 PM - - N/A% 30.11 in 10.0 mi WSW 10.4 mph - N/A   Clear
3:15 PM - - N/A% 30.11 in 10.0 mi SW 10.4 mph - N/A   Clear
3:35 PM - - N/A% 30.10 in 10.0 mi SW 6.9 mph - N/A   Clear
3:55 PM - - N/A% 30.09 in 10.0 mi South 8.1 mph - N/A   Clear
4:15 PM - - N/A% 30.08 in 10.0 mi South 11.5 mph 21.9 mph N/A   Clear
4:35 PM - - N/A% 30.08 in 10.0 mi SSW 6.9 mph - N/A   Clear
4:55 PM - - N/A% 30.08 in 10.0 mi SSW 10.4 mph - N/A   Clear
5:15 PM - - N/A% 30.07 in 10.0 mi SSW 8.1 mph - N/A   Clear
5:35 PM - - N/A% 30.07 in 10.0 mi SSW 8.1 mph - N/A   Clear
5:55 PM - - N/A% 30.06 in 10.0 mi South 8.1 mph - N/A   Clear
6:15 PM - - N/A% 30.06 in 10.0 mi South 9.2 mph - N/A   Clear
6:35 PM - - N/A% 30.06 in 10.0 mi South 6.9 mph - N/A   Clear
6:55 PM - - N/A% 30.06 in 10.0 mi South 5.8 mph - N/A   Clear
7:15 PM - - N/A% 30.06 in 10.0 mi South 4.6 mph - N/A   Clear
7:35 PM - - N/A% 30.06 in 10.0 mi South 5.8 mph - N/A   Clear
7:55 PM - - N/A% 30.06 in 10.0 mi South 4.6 mph - N/A   Clear
8:15 PM - - N/A% 30.06 in 10.0 mi South 3.5 mph - N/A   Clear
8:35 PM - - N/A% 30.06 in 10.0 mi SSE 4.6 mph - N/A   Clear
9:15 PM - - N/A% 30.06 in 10.0 mi SE 4.6 mph - N/A   Clear
9:35 PM - - N/A% 30.06 in 10.0 mi SE 3.5 mph - N/A   Clear
9:55 PM - - N/A% 30.06 in 10.0 mi SSE 3.5 mph - N/A   Clear
10:15 PM - - N/A% 30.06 in 10.0 mi SSE 3.5 mph - N/A   Clear
10:36 PM - - N/A% 30.06 in 10.0 mi SE 4.6 mph - N/A   Clear
10:55 PM - - N/A% 30.06 in 10.0 mi SSE 4.6 mph - N/A   Clear
11:15 PM - - N/A% 30.06 in 10.0 mi SSE 3.5 mph - N/A   Clear
11:35 PM - - N/A% 30.06 in 10.0 mi SSE 3.5 mph - N/A   Clear
11:55 PM - - N/A% 30.06 in 10.0 mi Calm Calm - N/A   Clear